Regional Weather Roundup
Issued by NWS

Home | Current Version | Previous Version | Graphics & Text | Print | Product List | Glossary On
Versions: 1 2 3 4 5 6 7 8 9 10 11 12 13 14 15 16 17 18 19 20 21 22 23 24 25 26 27 28 29 30 31 32 33 34 35 36 37 38 39 40 41 42 43 44 45 46 47 48 49 50
278
ASUS43 KDMX 301606
RWRIA

WEATHER ROUNDUP FOR IOWA
NATIONAL WEATHER SERVICE DES MOINES IA
1100 AM CDT SUN APR 30 2017

NOTE: "FAIR" INDICATES FEW OR NO CLOUDS BELOW 12,000 FEET WITH NO
SIGNIFICANT WEATHER AND/OR OBSTRUCTIONS TO VISIBILITY.

* - THESE STATIONS ARE NOT NWS STATIONS...THUS NOT UNDER NWS
QUALITY CONTROL.  THEY ALSO DO NOT REPORT WEATHER SUCH
AS PRECIPITATION OR FOG.

IAZ001>003-012>014-020>022-031>034-043>046-301700-
   NORTHWEST IOWA

CITY           SKY/WX    TMP DP  RH WIND       PRES   REMARKS
CARROLL *      CLOUDY    39  39 100 NE24      29.76F WCI  28
CHEROKEE *     RAIN      39  39  99 NE12G17   29.87S WCI  32
DENISON *      CLOUDY    39  37  93 NE31G47   29.72F WCI  27
ORANGE CITY *  RAIN      37  37 100 NE10G17   29.86F WCI  30
SHELDON *      RAIN      39  37  93 NE23      29.86F WCI  29
SIOUX CITY     LGT RAIN  41  39  93 NE16G30   29.81F
SPENCER        LGT RAIN  40  38  93 NE21      29.88F FOG     WCI  30
STORM LAKE *   PTSUNNY   37  36  93 NE25G32   29.84S FOG     WCI  26
$$

IAZ055>058-069>071-079>083-090>094-301700-
   SOUTHWEST IOWA

CITY           SKY/WX    TMP DP  RH WIND       PRES   REMARKS
ATLANTIC *     CLOUDY    43  41  93 NE24G38   29.67F
AUDUBON *      RAIN      39  37  93 NE26G32   29.70F WCI  28
CLARINDA *     CLOUDY    45  43  93 NE25G36   29.63F
COUNCIL BLFS *   N/A     41  41 100 NE21G31   29.66F
CRESTON *      CLOUDY    41  41 100 NE23G41   29.67S FOG
HARLAN  *      CLOUDY    41  41 100 NE21G35   29.73F
LAMONI         CLOUDY    44  42  93 NE23G33   29.63F
RED OAK *      CLOUDY    45  41  87 NE28G35   29.62F
SHENANDOAH *   CLOUDY    45  41  87 NE26G37   29.59F
$$

IAZ047>049-059>061-072>074-084-301700-
   CENTRAL IOWA

CITY           SKY/WX    TMP DP  RH WIND       PRES   REMARKS
AMES           RAIN      41  41 100 NE15      29.82F FOG
ANKENY *       LGT RAIN  41  39  93 NE16G24   29.79F
BOONE *        LGT RAIN  41  41 100 E22G29    29.78F
CHARITON *     CLOUDY    43  43 100 NE21      29.73F FOG
DES MOINES     DRIZZLE   43  41  93 NE21      29.75F
GRINNELL*      CLOUDY    40  40  97 NE13G20   29.84R FOG     WCI  33
KNOXVILLE *    CLOUDY    43  43 100 NE13G26   29.74F FOG
MARSHALLTOWN   CLOUDY    42  40  92 NE16      29.83F
NEWTON *       CLOUDY    41  39  93 NE18G25   29.79F FOG
PELLA *        CLOUDY    43  42  97 NE12G18   29.77F FOG
PERRY *        LGT RAIN  41  40  95 NE18G24   29.76F
$$

IAZ004>006-015-016-023>025-035-036-301700-
   NORTH CENTRAL IOWA

CITY           SKY/WX    TMP DP  RH WIND       PRES   REMARKS
ALGONA *       LGT RAIN  39  39 100 NE18      29.88F WCI  30
CLARION *      CLOUDY    41  41 100 E18       29.86F
ESTHERVILLE    CLOUDY    38  38 100 NE25      29.89F WCI  27
FORT DODGE *   CLOUDY    39  34  81 NE20      29.85F WCI  30
MASON CITY     LGT RAIN  41  37  86 NE22      29.89F
FOREST CITY *  DRIZZLE   39  34  81 NE13G20   29.89F WCI  32
WEBSTER CITY * CLOUDY    41  39  93 E15G22    29.84R
IOWA FALLS *   LGT RAIN  41  38  91 NE15G21   29.86F
$$

IAZ007>011-017>019-026>030-037>042-050>054-066-301700-
   NORTHEAST IOWA

CITY           SKY/WX    TMP DP  RH WIND       PRES   REMARKS
CEDAR RAPIDS   CLOUDY    42  42 100 E16       29.82F
CHARLES CITY * LGT RAIN  41  37  87 E14G21    29.90F
DECORAH *      CLOUDY    41  36  81 E14G23    29.91S
DUBUQUE        CLOUDY    42  39  89 NE16G25   29.87F
MONTICELLO *   CLOUDY    43  39  87 NE16      29.86S
OELWEIN *      CLOUDY    41  41 100 E15G24    29.87F
WATERLOO       LGT RAIN  42  38  85 NE21      29.85F
$$

IAZ064-065-067-068-078-301700-
   EAST CENTRAL IOWA

CITY           SKY/WX    TMP DP  RH WIND       PRES   REMARKS
DAVENPORT      LGT RAIN  44  42  93 E16       29.84S FOG
IOWA CITY      CLOUDY    44  41  89 E14G23    29.84F
MT. PLEASANT * CLOUDY    46  46 100 NE20G30   29.73F
MUSCATINE *    CLOUDY    46  45  93 NE12G17   29.82F FOG
QUAD CITIES    LGT RAIN  46  43  89 NE16      29.82F FOG
$$

IAZ062-063-075>077-085>089-095>099-301700-
   SOUTHEAST IOWA

CITY           SKY/WX    TMP DP  RH WIND       PRES   REMARKS
BURLINGTON     CLOUDY    46  46 100 NE21      29.70F
FAIRFIELD *    CLOUDY    45  45 100 NE21      29.73F FOG
FORT MADISON * FOG       46  46 100 NE18G31   29.69F VSB 1/2
KEOKUK *       CLOUDY    46  46 100 NE14G25   29.68F FOG
OSKALOOSA *    CLOUDY    43  42  97 NE15      29.77F
CENTERVILLE *  CLOUDY    45  45 100 NE6       29.76R
OTTUMWA        CLOUDY    44  44 100 NE20G29   29.75F
WASHINGTON *   CLOUDY    45  45 100 NE25      29.77F FOG
$$

ABBREVIATIONS USED IN REMARKS
   TC - TEMPERATURES IN CELSIUS
  WCI - WIND CHILL INDEX
   HX - HEAT INDEX
  VSB - VISIBILITY
$$





USA.gov is the U.S. government's official web portal to all federal, state and local government web resources and services.